Location: Balsareny
(41.8670°N, 1.8830°E)
Time: 23:29:08
(UTC+02:00)

Envisat - Pass Details

Date: 13 August 2024
Orbit: 762 x 764 km, 98.3° (Epoch: 17 September)

Event Time Altitude Azimuth Distance (km) Brightness Sun altitude
Rises 05:15:37 0° 11° (N) 3,236 7.1 -17.5°
Reaches altitude 10° 05:17:56 10° 10° (N) 2,306 6.2 -17.1°
Maximum altitude 05:23:00 77° 286° (WNW) 787 2.9 -16.4°
Enters shadow 05:26:26 21° 202° (SSW) 1,664 4.2 -15.9°
